Weather History for Alturas, CA

Change the Weather History Date:

Monday, April 7, 2014

  Actual Average Record
Temperature  
Mean Temperature 51 °F 41 °F  
Max Temperature 74 °F 55 °F 80 °F (1966)
Min Temperature 27 °F 27 °F 15 °F (1973)
Degree Days  
Heating Degree Days 14 24  
Month to date heating degree days 164 171  
Since 1 July heating degree days 5673 5863  
Cooling Degree Days 0 0  
Month to date cooling degree days 0 0  
Year to date cooling degree days 0 0  
Moisture  
Dew Point 29 °F    
Average Humidity 55    
Maximum Humidity 92    
Minimum Humidity 17    
Precipitation  
Precipitation 0.00 in 0.05 in 0.47 in (2013)
Month to date precipitation 0.10 0.33  
Year to date precipitation 3.86 4.95  
Sea Level Pressure  
Sea Level Pressure 30.25 in    
Wind  
Wind Speed 4 mph (SE)    
Max Wind Speed 16 mph    
Max Gust Speed 21 mph    
Visibility 9 miles    
Events      
T = Trace of Precipitation, MM = Missing Value Source: NWS Daily Summary

Daily Weather History Graph

Daily Weather History Graph

Search for Another Location

Airport:

Trip Planner

Search our weather history database for the weather conditions in past years. The results will help you decide how hot, cold, wet, or windy it might be!

Date:

Astronomy

Apr. 07, 2014 Rise Set
Actual Time 6:35 AM PDT 7:34 PM PDT
Civil Twilight 6:06 AM PDT 8:02 PM PDT
Nautical Twilight 5:33 AM PDT 8:36 PM PDT
Astronomical Twilight 4:58 AM PDT 9:11 PM PDT
Moon 12:34 PM PDT (4/7) 2:16 AM PDT (4/7)
Length of Visible Light 13h 55m
Length of Day
12h 58m
First Quarter, 54% of the Moon is Illuminated
Apr 7
First Quarter
Apr 15
Full
Apr 22
Last Quarter
Apr 28
New
May 6
First Quarter

Hourly Weather History & Observations

Time (PDT) Temp. Windchill Dew Point Humidity Pressure Visibility Wind Dir Wind Speed Gust Speed Precip Events Conditions
12:55 AM 37.0 °F 33.3 °F 33.1 °F 86% 30.31 in 10.0 mi East 4.6 mph - N/A   Clear
1:55 AM 34.0 °F 31.0 °F 30.9 °F 89% 30.32 in 9.0 mi NE 3.5 mph - N/A   Clear
2:55 AM 32.0 °F - 28.9 °F 88% 30.30 in 10.0 mi Calm Calm - N/A   Clear
3:55 AM 30.9 °F - 28.9 °F 92% 30.30 in 10.0 mi Calm Calm - N/A   Clear
4:55 AM 28.9 °F - 26.1 °F 89% 30.30 in 9.0 mi Calm Calm - N/A   Clear
5:55 AM 27.0 °F - 25.0 °F 92% 30.32 in 6.0 mi Calm Calm - N/A   Clear
6:55 AM 28.9 °F - 27.0 °F 92% 30.32 in 5.0 mi Calm Calm - N/A   Clear
7:55 AM 34.0 °F - 30.0 °F 85% 30.34 in 9.0 mi Calm Calm - N/A   Clear
8:55 AM 43.0 °F - 34.0 °F 71% 30.32 in 10.0 mi Calm Calm - N/A   Clear
9:55 AM 48.9 °F - 35.1 °F 59% 30.30 in 10.0 mi Calm Calm - N/A   Clear
10:55 AM - - - N/A% 30.31 in - North - - N/A   Unknown
11:55 AM - - - N/A% 30.29 in - North - - N/A   Unknown
1:55 PM 71.1 °F - 28.9 °F 21% 30.19 in 10.0 mi Variable 4.6 mph 17.3 mph N/A   Unknown
2:55 PM 72.0 °F - 28.0 °F 20% 30.17 in 10.0 mi SSE 8.1 mph 18.4 mph N/A   Clear
3:55 PM 73.0 °F - 26.1 °F 17% 30.15 in 10.0 mi SE 9.2 mph - N/A   Clear
4:55 PM 73.9 °F - 27.0 °F 18% 30.14 in 10.0 mi South 6.9 mph - N/A   Clear
5:55 PM 72.0 °F - 26.1 °F 18% 30.14 in 10.0 mi SE 6.9 mph - N/A   Clear
6:55 PM 69.1 °F - 27.0 °F 21% 30.14 in 10.0 mi West 8.1 mph - N/A   Clear
7:55 PM 59.0 °F - 30.0 °F 33% 30.16 in 10.0 mi West 8.1 mph - N/A   Clear
8:55 PM 54.0 °F - 30.9 °F 41% 30.17 in 10.0 mi West 4.6 mph - N/A   Clear
9:55 PM 54.0 °F - 30.9 °F 41% 30.18 in 10.0 mi SSE 5.8 mph - N/A   Clear
10:55 PM 50.0 °F - 33.1 °F 52% 30.24 in 10.0 mi East 4.6 mph - N/A   Clear
11:55 PM 43.0 °F 41.3 °F 32.0 °F 65% 30.25 in 10.0 mi ENE 3.5 mph - N/A   Clear